Location: Maccacari
(45.1333°N, 11.1333°E)
Time: 01:37:52
(UTC+00:00)

Tiros 1 despin weight - Pass Details

Date: 24 January 2021
Orbit: 593 x 642 km, 48.2° (Epoch: 07 March)

Event Time Altitude Azimuth Distance (km) Brightness Sun altitude
Rises 15:13:59 0° 262° (W) 2,880 ? 7.8°
Reaches altitude 10° 15:16:20 10° 265° (W) 1,968 ? 7.5°
Maximum altitude 15:20:49 67° 348° (NNW) 660 ? 6.8°
Drops below altitude 10° 15:25:16 10° 72° (ENE) 1,943 ? 6.2°
Sets 15:27:34 0° 75° (ENE) 2,840 ? 5.9°
